PEGASUS R/B, 23106

Orbit data source: Space-Track

PEGASUS R/B, 23106 is space debris in LEO originally from a launch on Thu, 19 May 1994 UTC launched from the Air Force Western Test Range (AFWTR). Debris objects in space refer to the collection of defunct objects orbiting the Earth. Examples of debris include non-operational satellites, rocket bodies, and fragments generated from explosions, collisions, or faulty payload assembly.

Loading next visibility...
Identifier
23106, 1994-029B
Orbit
LEO
Country
Flag of USUS
Related business
Manufacturer
OSC Chandler
Mission
Spacecraft
Bus & Motor
HAPS, Unknown motor
Mass
107 kg wet, 97 kg dry
Launch date (UTC)
1994-05-19 (32 years ago)
Launch vehicle
Unknown
Launch site
Air Force Western Test Range (AFWTR)
Object type
Payload
Rocket body
Debris
Shape & HBR
Cyl, 0.4 m
Radar Cross Section
0.286 m², Medium (>0.1 m² and < 1m²)

Expand to show TLE details & history
Last TLE update: 8 hours ago

TLE from 8 hours ago
0 PEGASUS R/B
1 23106U 94029B   26175.22273412  .00001212  00000-0  15245-3 0  9996
2 23106  81.9560 253.1505 0113276 105.6373 255.7371 14.76712121716319
Epoch: 2026-06-24T05:20Z
TLE epoch observation values (Epoch: 2026-06-24T05:20:44.227Z)
Latitude
-0.00006°
Longitude
-99.41683°
Altitude
663.167 km
Speed
7.515 km/s
True Right ascension
16h 52m 36s
True Declination
0° 00' 00"
Sunlit
Object was in full shadow at epoch
Visualization orbit readout
Latitude
Unknown
Longitude
Unknown
Altitude
Unknown
Speed
Unknown
Apparent Right ascension
Unknown
Apparent Declination
Unknown
Sunlit
N/A
Visualization observer readout
Local Sidereal Time
00:06:01
Azimuth
Unknown
Elevation
Unknown
Doppler factor
Unknown
Orbital elements
Apogee altitude
716.235 km
Perigee altitude
557.311 km
Semi-major axis
7,014.91 km
Eccentricity
0.01133
Inclination
81.956°
RAAN
253.1505°
Arg. of periapsis
105.6373°
True anomaly
254.48354°
Mean anomaly
255.7371°
Eccentric anomaly
255.10987°
Mean motion
3.69411 °/min
Orbital period
97.45 mins
BSTAR
0.00015245
Loading maneuver chart data...
Computing Atmospheric mass density...

Documentation

Showing up to 5 results
|